Вернуться в каталог

FENGYUN 1C DEB

АктивенPO
NORAD 32234·DEBRIS·🇨🇳 China

Запущен May 10, 1999 с Taiyuan Satellite Launch Center

Loading…

Ближайшие Пролёты (ближайшие 24 часа)

TLE

СвежийSource: Space-Track

Эпоха: Sep 14, 2026, 00:18 UTC

1 32234U 99025CWG 26257.01297628  .00000971  00000-0  69770-3 0  9995
2 32234  98.5147  90.9361 0133430 292.4108  66.2966 13.94986378970467

Отслеживайте FENGYUN 1C DEB в реальном времени с AllMySat

Download on the App Store